Location: Newark
(52.2583°N, 7.1190°W)
Time: 08:25:18
(UTC+00:00)

S-56A Canister/Altair - Pass Details

Date: 17 November 2019
Orbit: 633 x 2499 km, 38.9° (Epoch: 07 December)

Event Time Altitude Azimuth Distance (km) Brightness Sun altitude
Rises 20:34:07 0° 251° (WSW) 4,191 12.0 -36.3°
Reaches altitude 10° 20:38:00 10° 237° (WSW) 2,891 10.8 -36.8°
Enters shadow 20:40:27 17° 220° (SW) 2,199 10.0 -37.2°
